SCP
0 0 0 0 0 0 0 0 0 0 0 0 0 0 0 0 0 0 0 0 0 0
0 0 0 0 0 0 0 0 0 0 0 0 0 0 0 0 0 0 0 0 0 0
0 0 0 0 0 0 0 0 0 0 0 0 0 0 0 0 0 0 0 0 0 0
0 0 0 0 0 0 0 0 0 0 0 0 0 0 0 0 0 0 0 0 0 0
0 0 0 0 0 0 0 0 0 0 0 0 0 0 0 0 0 0 0 0 0 0
0 0 0 0 0 0 0 0 0 0 0 0 0 0 0 0 0 0 0 0 -0 0
0 0 0 0 0 0 0 0 0 0 0 0 0 0 0 0 -0 -0 0 0 0 0
0 0 0 0 0 0 0 0 0 0 0 0 0 0 0 0 0 0 0 0 0 0
0 0 0 0 0 0 0 0 0 0 0 0 0 0 0 0 0 0 0 0 0 0
0 0 0 0 0 0 0 0 0 0 0 0 0 0 0 0 0 0 0 0 0 0
0 0 0 0 0 0 0 0 0 0 0 0 0 0 0 0 0 0 0 0 0 0
0 0 0 0 0 0 0 0 0 0 0 0 0 0 -0 0 0 0 0 0 0 0
0 0 0 0 0 0 0 0 0 0 0 0 -0 0 -0 0 0 0 0 0 0 -0
0 0 0 0 0 0 0 0 0 0 0 -0 -0 0 0 0 0 0 0 0 0 0
Wind_Speed_500mb
46 45 51 56 53 51 57 64 65 55 41 41 41 44 47 50 52 55 50 43 40 42
44 47 49 47 53 61 67 72 53 43 41 45 46 47 51 56 53 44 40 38 38 33
42 47 51 53 59 66 65 48 39 36 38 42 53 60 56 42 37 32 32 29 24 22
51 57 48 57 57 43 41 38 39 44 50 55 50 46 33 30 27 24 20 12 13 18
52 51 45 42 40 43 45 43 48 51 49 44 40 32 25 22 22 17 11 7 14 17
57 47 44 39 42 50 48 46 43 40 42 35 34 24 15 22 15 12 4 8 10 9
47 43 38 38 49 54 45 39 34 35 36 30 23 17 13 13 9 5 4 4 7 4
35 37 34 42 56 45 36 34 33 35 29 21 19 12 12 2 4 5 1 2 5 8
33 32 36 50 49 38 32 33 32 30 25 18 16 8 1 6 10 7 8 9 5 7
29 33 38 52 40 34 34 30 29 24 18 12 12 11 8 11 10 8 10 11 11 15
30 34 46 48 38 36 30 27 27 18 12 7 12 13 12 19 16 15 16 18 17 18
32 38 52 42 39 33 25 23 20 12 14 13 12 16 23 23 20 20 18 18 16 16
34 44 45 38 34 32 23 15 6 11 15 17 15 16 16 23 23 21 19 19 25 22
31 47 36 30 30 23 16 8 13 12 17 17 18 22 23 23 24 23 20 30 30 28
Wind_Direction_500mb
329 320 319 323 327 324 323 321 312 312 300 301 299 295 294 294 295 298 290 286 275 270
319 318 324 326 324 317 316 319 314 307 299 300 303 299 299 302 302 293 288 283 274 276
319 322 322 320 320 317 319 323 326 321 313 306 307 301 299 296 302 298 296 279 271 262
318 322 320 317 324 336 333 330 325 317 310 306 307 308 300 301 302 302 289 278 269 282
327 326 330 341 342 338 331 324 319 319 316 313 312 308 310 306 302 288 285 290 278 295
330 330 338 338 335 337 333 329 327 330 328 320 322 306 297 300 289 258 309 323 298 297
332 331 339 333 339 337 335 337 337 338 334 332 330 321 318 316 292 203 296 294 327 122
336 338 337 336 339 339 341 346 346 347 338 346 336 319 329 267 127 144 249 328 19 152
336 341 336 339 340 337 344 346 349 348 346 357 353 347 241 155 123 95 90 102 121 137
344 341 338 342 344 346 346 344 350 353 6 11 26 61 90 135 114 89 102 113 135 141
342 339 342 343 342 339 342 348 348 356 6 58 65 80 98 119 113 100 104 110 121 139
338 341 343 344 343 343 343 348 351 20 92 111 93 99 113 114 116 105 107 117 112 119
338 343 342 343 341 345 351 351 25 89 100 96 101 114 115 111 114 111 103 127 117 107
345 343 347 353 350 9 9 31 115 111 120 110 112 120 109 111 116 119 116 124 123 110
Wind_Speed_850mb
46 45 51 56 53 51 57 64 65 55 41 41 41 44 47 50 52 55 50 43 40 42
44 47 49 47 53 61 67 72 53 43 41 45 46 47 51 56 53 44 40 38 38 33
42 47 51 53 59 66 65 48 39 36 38 42 53 60 56 42 37 32 32 29 24 22
51 57 48 57 57 43 41 38 39 44 50 55 50 46 33 30 27 24 20 12 13 18
52 51 45 42 40 43 45 43 48 51 49 44 40 32 25 22 22 17 11 7 14 17
57 47 44 39 42 50 48 46 43 40 42 35 34 24 15 22 15 12 4 8 10 9
47 43 38 38 49 54 45 39 34 35 36 30 23 17 13 13 9 5 4 4 7 4
35 37 34 42 56 45 36 34 33 35 29 21 19 12 12 2 4 5 1 2 5 8
33 32 36 50 49 38 32 33 32 30 25 18 16 8 1 6 10 7 8 9 5 7
29 33 38 52 40 34 34 30 29 24 18 12 12 11 8 11 10 8 10 11 11 15
30 34 46 48 38 36 30 27 27 18 12 7 12 13 12 19 16 15 16 18 17 18
32 38 52 42 39 33 25 23 20 12 14 13 12 16 23 23 20 20 18 18 16 16
34 44 45 38 34 32 23 15 6 11 15 17 15 16 16 23 23 21 19 19 25 22
31 47 36 30 30 23 16 8 13 12 17 17 18 22 23 23 24 23 20 30 30 28
Wind_Direction_850mb
329 320 319 323 327 324 323 321 312 312 300 301 299 295 294 294 295 298 290 286 275 270
319 318 324 326 324 317 316 319 314 307 299 300 303 299 299 302 302 293 288 283 274 276
319 322 322 320 320 317 319 323 326 321 313 306 307 301 299 296 302 298 296 279 271 262
318 322 320 317 324 336 333 330 325 317 310 306 307 308 300 301 302 302 289 278 269 282
327 326 330 341 342 338 331 324 319 319 316 313 312 308 310 306 302 288 285 290 278 295
330 330 338 338 335 337 333 329 327 330 328 320 322 306 297 300 289 258 309 323 298 297
332 331 339 333 339 337 335 337 337 338 334 332 330 321 318 316 292 203 296 294 327 122
336 338 337 336 339 339 341 346 346 347 338 346 336 319 329 267 127 144 249 328 19 152
336 341 336 339 340 337 344 346 349 348 346 357 353 347 241 155 123 95 90 102 121 137
344 341 338 342 344 346 346 344 350 353 6 11 26 61 90 135 114 89 102 113 135 141
342 339 342 343 342 339 342 348 348 356 6 58 65 80 98 119 113 100 104 110 121 139
338 341 343 344 343 343 343 348 351 20 92 111 93 99 113 114 116 105 107 117 112 119
338 343 342 343 341 345 351 351 25 89 100 96 101 114 115 111 114 111 103 127 117 107
345 343 347 353 350 9 9 31 115 111 120 110 112 120 109 111 116 119 116 124 123 110